Date,Time,Wetness (Wet Dry or Ice),Wind Speed (m/s),Temperature (C),Humidity (%),Pressure (mb),Radiation (W/m^2)
2017-12-26,06:15:00,DRY,2.15,3.10,11.5,777.00,1.6
2017-12-26,06:20:00,DRY,2.40,3.20,11.3,777.00,1.1
2017-12-26,06:25:00,DRY,2.85,3.25,11.0,777.00,1.3
2017-12-26,06:30:00,DRY,3.87,3.27,10.7,777.00,0.7
2017-12-26,06:35:00,DRY,3.95,3.15,11.0,777.00,0.4
2017-12-26,06:40:00,DRY,3.50,2.83,11.0,777.00,1.0
2017-12-26,06:45:00,DRY,3.65,2.60,12.5,777.00,1.0
2017-12-26,06:50:00,DRY,3.50,2.63,11.3,777.00,0.7
2017-12-26,06:55:00,DRY,3.80,2.70,11.0,777.00,1.1
2017-12-26,07:00:00,DRY,3.80,2.80,13.0,777.33,0.7
2017-12-26,07:05:00,DRY,3.70,2.95,12.0,777.50,0.9
2017-12-26,07:10:00,DRY,3.73,2.93,12.7,777.67,0.6
2017-12-26,07:15:00,DRY,4.10,2.95,12.0,778.00,0.7
2017-12-26,07:20:00,DRY,3.47,3.03,11.7,778.00,0.7
2017-12-26,07:25:00,DRY,3.75,3.25,10.0,778.00,0.3
2017-12-26,07:30:00,DRY,3.83,3.03,11.0,778.00,0.6
2017-12-26,07:35:00,DRY,3.80,3.10,11.5,778.00,0.8
2017-12-26,07:40:00,DRY,3.60,3.23,11.0,778.00,1.0
2017-12-26,07:45:00,DRY,3.70,3.30,11.5,778.00,0.8
2017-12-26,07:50:00,DRY,2.97,3.43,11.7,778.00,2.4
2017-12-26,07:55:00,DRY,3.40,3.45,10.5,778.00,3.4
2017-12-26,08:00:00,DRY,2.13,3.73,10.7,778.00,4.5
2017-12-26,08:05:00,DRY,1.75,3.90,9.0,778.00,7.0
2017-12-26,08:10:00,DRY,2.73,3.93,9.3,778.00,10.1
2017-12-26,08:15:00,DRY,3.30,3.95,10.0,778.00,11.2
2017-12-26,08:20:00,DRY,2.53,4.03,9.0,778.00,14.0
2017-12-26,08:25:00,DRY,2.55,3.80,10.5,778.00,16.1
2017-12-26,08:30:00,DRY,2.60,4.07,8.0,778.00,16.9
2017-12-26,08:35:00,DRY,2.05,4.50,7.5,778.00,19.6
2017-12-26,08:40:00,DRY,1.27,4.27,8.3,778.00,20.7
2017-12-26,08:45:00,DRY,1.70,4.50,7.5,778.00,96.0
2017-12-26,08:50:00,DRY,2.00,5.00,8.0,778.00,171.0
2017-12-26,08:55:00,DRY,1.85,5.20,6.5,778.00,189.0
2017-12-26,09:00:00,DRY,2.40,5.20,7.3,778.00,207.5
2017-12-26,09:05:00,DRY,2.25,4.95,9.0,778.00,225.8
2017-12-26,09:10:00,DRY,1.63,4.70,8.7,778.67,245.0
2017-12-26,09:15:00,DRY,1.30,5.25,7.0,779.00,264.9
2017-12-26,09:20:00,DRY,1.47,5.13,7.3,779.00,282.5
2017-12-26,09:25:00,DRY,1.75,5.05,8.0,779.00,300.0
2017-12-26,09:30:00,DRY,2.13,5.10,7.7,779.00,317.3
2017-12-26,09:35:00,DRY,2.10,4.75,8.5,778.50,335.6
2017-12-26,09:40:00,DRY,2.20,4.80,9.0,779.00,352.7
2017-12-26,09:45:00,DRY,2.80,4.75,10.5,779.00,369.9
2017-12-26,09:50:00,DRY,3.27,4.77,10.0,779.00,386.1
2017-12-26,09:55:00,DRY,2.55,4.90,10.0,779.00,402.6
2017-12-26,10:00:00,DRY,3.03,5.07,9.3,779.00,419.0
2017-12-26,10:05:00,DRY,2.50,5.15,9.0,779.00,434.8
2017-12-26,10:10:00,DRY,2.40,5.23,10.3,779.00,451.4
2017-12-26,10:15:00,DRY,2.00,5.60,9.5,779.00,465.6
2017-12-26,10:20:00,DRY,2.33,5.60,9.0,779.00,481.3
2017-12-26,10:25:00,DRY,2.25,5.40,9.0,779.00,495.4
2017-12-26,10:30:00,DRY,3.07,5.30,10.0,779.00,509.4
2017-12-26,10:35:00,DRY,3.70,5.25,9.0,779.00,523.1
2017-12-26,10:40:00,DRY,3.27,5.63,10.7,779.00,536.6
2017-12-26,10:45:00,DRY,2.00,5.70,11.5,779.00,549.3
2017-12-26,10:50:00,DRY,3.23,5.40,10.3,779.00,562.9
2017-12-26,10:55:00,DRY,2.45,5.45,9.5,779.00,574.3
2017-12-26,11:00:00,DRY,2.43,5.63,11.0,779.00,587.1
2017-12-26,11:05:00,DRY,2.45,5.85,11.5,779.00,597.9
2017-12-26,11:10:00,DRY,1.80,6.10,11.0,779.00,607.9
2017-12-26,11:15:00,DRY,1.95,6.45,14.0,779.00,620.2
2017-12-26,11:20:00,DRY,1.40,6.20,16.7,779.00,629.1
2017-12-26,11:25:00,DRY,0.50,6.50,15.5,779.00,638.8
2017-12-26,11:30:00,DRY,1.43,6.67,16.7,779.00,649.4
2017-12-26,11:35:00,DRY,1.25,6.35,16.0,779.00,656.9
2017-12-26,11:40:00,DRY,1.37,6.33,17.7,779.00,664.7
2017-12-26,11:45:00,DRY,1.00,6.15,19.0,779.00,672.9
2017-12-26,11:50:00,DRY,1.03,6.30,21.7,779.00,679.8
2017-12-26,11:55:00,DRY,0.50,6.70,22.5,779.00,688.1
2017-12-26,12:00:00,DRY,2.10,6.50,22.7,779.00,694.1
2017-12-26,12:05:00,DRY,2.35,5.70,22.5,779.00,699.7
2017-12-26,12:10:00,DRY,2.30,5.80,22.3,779.00,704.9
2017-12-26,12:15:00,DRY,2.30,5.70,23.0,779.00,709.6
2017-12-26,12:20:00,DRY,2.60,5.80,23.0,778.67,714.2
2017-12-26,12:25:00,DRY,1.85,5.95,23.5,779.00,720.1
2017-12-26,12:30:00,DRY,1.73,6.67,24.3,778.67,723.2
2017-12-26,12:35:00,DRY,2.20,6.40,24.5,778.50,726.2
2017-12-26,12:40:00,DRY,1.57,6.60,24.7,778.33,730.2
2017-12-26,12:45:00,DRY,1.30,6.90,24.0,778.00,732.9
2017-12-26,12:50:00,DRY,1.47,7.37,28.3,778.00,733.7
2017-12-26,12:55:00,DRY,1.45,7.20,25.5,778.00,734.7
2017-12-26,13:00:00,DRY,1.93,7.00,22.7,778.00,735.0
2017-12-26,13:05:00,DRY,2.20,7.05,22.0,778.00,736.2
2017-12-26,13:10:00,DRY,1.60,7.23,29.7,778.00,735.7
2017-12-26,13:15:00,DRY,1.25,7.55,24.5,778.00,737.8
2017-12-26,13:20:00,DRY,1.37,7.27,31.3,778.00,736.0
2017-12-26,13:25:00,DRY,1.25,7.55,31.0,778.00,735.0
2017-12-26,13:30:00,DRY,2.20,8.00,40.0,778.00,733.1
2017-12-26,13:35:00,DRY,0.30,7.30,39.0,778.00,732.2
2017-12-26,13:40:00,DRY,0.83,7.53,39.0,778.00,730.0
2017-12-26,13:45:00,DRY,1.50,7.20,33.0,778.00,725.0
2017-12-26,13:50:00,DRY,2.10,7.13,28.7,778.00,721.6
2017-12-26,13:55:00,DRY,1.25,7.65,32.5,778.00,720.2
2017-12-26,14:00:00,DRY,1.77,7.30,21.0,778.00,715.2
2017-12-26,14:05:00,DRY,3.40,7.10,21.5,777.00,707.7
2017-12-26,14:10:00,DRY,1.53,7.03,22.7,777.33,703.2
2017-12-26,14:15:00,DRY,0.80,7.65,28.5,777.00,699.0
2017-12-26,14:20:00,DRY,1.97,7.63,25.3,777.00,691.8
2017-12-26,14:25:00,DRY,2.10,7.25,46.0,777.00,685.0
2017-12-26,14:30:00,DRY,1.40,7.00,35.0,777.00,679.2
2017-12-26,14:35:00,DRY,1.25,7.45,23.0,777.00,669.8
2017-12-26,14:40:00,DRY,2.47,7.23,23.7,777.00,661.1
2017-12-26,14:45:00,DRY,2.00,6.90,21.5,777.00,652.6
2017-12-26,14:50:00,DRY,1.90,7.20,23.3,777.00,642.5
2017-12-26,14:55:00,DRY,2.30,7.05,18.0,777.00,633.7
2017-12-26,15:00:00,DRY,1.87,6.83,20.0,777.00,622.6
2017-12-26,15:05:00,DRY,1.90,7.05,29.0,777.00,611.5
2017-12-26,15:10:00,DRY,1.87,7.37,33.3,777.00,600.6
2017-12-26,15:15:00,DRY,1.90,7.55,24.0,777.00,590.5
2017-12-26,15:20:00,DRY,1.73,7.03,18.7,777.00,579.4
2017-12-26,15:25:00,DRY,2.25,6.80,18.0,777.00,566.0
2017-12-26,15:30:00,DRY,2.50,7.00,22.0,777.00,555.3
2017-12-26,15:35:00,DRY,2.60,6.70,18.5,777.00,541.7
2017-12-26,15:40:00,DRY,2.57,6.57,17.3,777.00,528.1
2017-12-26,15:45:00,DRY,2.70,6.50,15.5,777.00,515.2
2017-12-26,15:50:00,DRY,2.30,6.57,11.3,777.33,501.2
2017-12-26,15:55:00,DRY,1.70,6.50,14.0,777.00,488.4
2017-12-26,16:00:00,DRY,1.80,6.37,11.7,777.33,473.5
2017-12-26,16:05:00,DRY,2.05,6.60,11.0,777.50,459.5
2017-12-26,16:10:00,DRY,1.57,6.60,15.7,777.00,442.4
2017-12-26,16:15:00,DRY,3.35,6.50,15.5,777.50,426.4
2017-12-26,16:20:00,DRY,2.93,6.17,8.7,778.00,410.4
2017-12-26,16:25:00,DRY,2.70,6.10,7.5,777.50,394.0
2017-12-26,16:30:00,DRY,2.93,6.30,12.3,777.67,376.9
2017-12-26,16:35:00,DRY,2.05,6.50,14.0,778.00,359.4
2017-12-26,16:40:00,DRY,1.67,6.27,10.0,778.00,343.3
2017-12-26,16:45:00,DRY,2.00,5.75,13.0,778.00,324.9
2017-12-26,16:50:00,DRY,1.33,6.13,15.7,778.00,307.3
2017-12-26,16:55:00,DRY,1.95,6.20,9.0,778.00,288.2
2017-12-26,17:00:00,DRY,1.40,6.03,13.0,778.00,270.6
2017-12-26,17:05:00,DRY,1.75,6.20,15.0,778.00,253.2
2017-12-26,17:10:00,DRY,1.97,5.77,8.7,778.00,235.7
2017-12-26,17:15:00,DRY,1.65,5.85,9.5,778.00,217.0
2017-12-26,17:20:00,DRY,1.93,5.90,11.7,778.00,198.9
2017-12-26,17:25:00,DRY,1.45,6.05,9.0,778.00,182.5
2017-12-26,17:30:00,DRY,1.63,5.67,8.0,778.00,165.8
2017-12-26,17:35:00,DRY,2.05,5.50,8.0,778.00,148.2
2017-12-26,17:40:00,DRY,2.10,5.63,8.3,778.00,125.9
2017-12-26,17:45:00,DRY,1.90,5.55,8.5,778.00,102.8
2017-12-26,17:50:00,DRY,2.43,5.10,9.7,778.00,79.0
2017-12-26,17:55:00,DRY,2.80,4.60,9.5,778.00,60.5
2017-12-26,18:00:00,DRY,2.93,4.80,9.3,778.00,43.1
2017-12-26,18:05:00,DRY,2.60,5.00,9.5,778.00,28.9
2017-12-26,18:10:00,DRY,3.13,4.77,8.7,778.00,18.8
2017-12-26,18:15:00,DRY,2.95,4.90,8.0,778.00,13.2
2017-12-26,18:20:00,DRY,3.40,4.70,9.3,778.00,9.8
2017-12-26,18:25:00,DRY,3.45,4.50,9.0,778.00,5.5
2017-12-26,18:30:00,DRY,3.77,4.57,8.0,778.00,2.3
2017-12-26,18:35:00,DRY,2.75,4.35,8.0,778.00,1.1
2017-12-26,18:40:00,DRY,2.93,4.17,8.0,778.00,0.7
2017-12-26,18:45:00,DRY,3.35,4.35,8.5,778.00,0.2
2017-12-26,18:50:00,DRY,3.50,4.37,8.3,778.00,0.4
2017-12-26,18:55:00,DRY,3.35,4.35,7.5,778.00,0.2
2017-12-26,19:00:00,DRY,3.60,4.30,8.3,778.00,0.2
2017-12-26,19:05:00,DRY,3.15,4.30,8.5,778.00,0.3
2017-12-26,19:10:00,DRY,2.97,4.13,8.3,778.00,1.1
2017-12-26,19:15:00,DRY,2.70,4.35,8.0,778.00,0.3
2017-12-26,19:20:00,DRY,2.40,4.10,8.0,778.00,0.9
2017-12-26,19:25:00,DRY,2.60,4.20,7.5,778.00,0.8
2017-12-26,19:30:00,DRY,3.03,4.20,7.3,778.00,0.6
2017-12-26,19:35:00,DRY,2.45,4.40,7.0,778.00,1.4
2017-12-26,19:40:00,DRY,2.40,4.30,7.0,778.00,1.4
2017-12-26,19:45:00,DRY,2.10,4.35,7.0,778.00,0.9
2017-12-26,19:50:00,DRY,2.63,4.57,6.7,778.00,0.8
2017-12-26,19:55:00,DRY,2.75,4.40,7.0,778.00,0.0
2017-12-26,20:00:00,DRY,2.43,4.40,7.0,778.00,1.2
2017-12-26,20:05:00,DRY,2.35,4.20,7.0,778.00,0.0
2017-12-26,20:10:00,DRY,3.30,4.00,7.7,778.00,0.2
2017-12-26,20:15:00,DRY,3.55,3.90,7.0,778.00,0.6
2017-12-26,20:20:00,DRY,3.10,3.87,7.7,778.00,1.4
2017-12-26,20:25:00,DRY,3.15,3.85,8.0,778.00,0.2
2017-12-26,20:30:00,DRY,3.97,3.77,8.0,778.00,0.6
2017-12-26,20:35:00,DRY,3.80,3.75,8.0,778.00,0.4
2017-12-26,20:40:00,DRY,3.63,3.93,7.3,778.00,0.6
2017-12-26,20:45:00,DRY,4.60,4.10,8.0,778.00,0.2
2017-12-26,20:50:00,DRY,4.27,4.07,7.7,778.00,1.2
2017-12-26,20:55:00,DRY,4.60,4.10,8.0,778.00,0.5
2017-12-26,21:00:00,DRY,4.30,4.07,8.0,778.67,0.4
2017-12-26,21:05:00,DRY,3.40,4.20,7.5,779.00,1.6
2017-12-26,21:10:00,DRY,3.73,4.50,7.0,778.67,0.4
2017-12-26,21:15:00,DRY,4.10,4.40,7.5,779.00,0.7
2017-12-26,21:20:00,DRY,4.77,4.50,8.0,779.00,0.5
2017-12-26,21:25:00,DRY,4.75,4.55,8.0,779.00,0.7
2017-12-26,21:30:00,DRY,4.27,4.67,8.0,779.00,0.4
2017-12-26,21:35:00,DRY,5.00,4.80,7.5,779.00,0.7
2017-12-26,21:40:00,DRY,4.03,4.70,8.0,779.00,0.3
2017-12-26,21:45:00,DRY,3.40,4.65,8.0,779.00,0.6
2017-12-26,21:50:00,DRY,2.83,4.47,7.7,779.00,0.8
2017-12-26,21:55:00,DRY,4.55,4.45,8.0,779.00,0.5
2017-12-26,22:00:00,DRY,4.67,4.47,8.0,779.00,0.5
2017-12-26,22:05:00,DRY,5.75,4.40,8.0,779.00,0.1
2017-12-26,22:10:00,DRY,4.37,4.57,8.0,779.00,0.2
2017-12-26,22:15:00,DRY,5.10,4.40,8.0,779.00,0.0
2017-12-26,22:20:00,DRY,4.90,4.33,8.0,779.00,0.3
2017-12-26,22:25:00,DRY,4.80,4.15,8.0,779.00,0.1
2017-12-26,22:30:00,DRY,5.13,4.23,7.7,779.00,0.3
2017-12-26,22:35:00,DRY,5.50,4.30,7.5,779.00,0.2
2017-12-26,22:40:00,DRY,4.33,4.07,8.0,779.00,0.4
2017-12-26,22:45:00,DRY,4.40,4.15,7.0,779.00,0.3
2017-12-26,22:50:00,DRY,5.23,4.03,7.7,779.00,0.2
2017-12-26,22:55:00,DRY,5.00,3.95,8.0,779.00,0.1
2017-12-26,23:00:00,DRY,4.43,4.00,7.3,779.00,0.4
2017-12-26,23:05:00,DRY,6.10,4.15,7.5,779.00,0.3
2017-12-26,23:10:00,DRY,6.30,4.10,8.0,779.00,0.4
2017-12-26,23:15:00,DRY,5.80,4.05,8.0,779.00,1.4
2017-12-26,23:20:00,DRY,5.03,4.20,7.0,779.00,1.5
2017-12-26,23:25:00,DRY,4.15,4.25,7.0,779.00,0.3
2017-12-26,23:30:00,DRY,4.53,4.10,7.0,779.00,0.2
2017-12-26,23:35:00,DRY,4.60,4.10,7.0,779.00,2.4
2017-12-26,23:40:00,DRY,4.33,4.33,7.0,779.00,0.0
2017-12-26,23:45:00,DRY,4.70,4.70,7.0,779.00,0.5
2017-12-26,23:50:00,DRY,4.40,4.63,7.0,779.00,0.3
2017-12-26,23:55:00,DRY,3.35,4.30,7.0,779.00,0.1
2017-12-27,00:00:00,DRY,4.87,4.23,7.0,779.00,0.2
2017-12-27,00:05:00,DRY,5.10,4.20,7.0,779.00,0.2
2017-12-27,00:10:00,DRY,4.60,4.27,7.0,779.00,0.2
2017-12-27,00:15:00,DRY,3.55,4.40,7.0,779.00,0.6
2017-12-27,00:20:00,DRY,4.13,4.73,7.0,779.00,0.5
2017-12-27,00:25:00,DRY,4.65,4.35,8.0,779.00,0.5
2017-12-27,00:30:00,DRY,4.20,4.43,7.0,779.00,0.2
2017-12-27,00:35:00,DRY,4.40,4.45,7.5,779.00,0.3
2017-12-27,00:40:00,DRY,3.77,4.50,7.7,779.00,0.3
2017-12-27,00:45:00,DRY,3.05,4.70,7.0,779.00,0.4
2017-12-27,00:50:00,DRY,3.00,5.00,7.0,779.00,0.9
2017-12-27,00:55:00,DRY,1.70,4.90,7.0,779.00,0.0
2017-12-27,01:00:00,DRY,2.30,4.57,7.7,779.00,1.2
2017-12-27,01:05:00,DRY,2.20,4.35,7.5,779.00,0.7
2017-12-27,01:10:00,DRY,3.30,4.77,7.0,779.00,0.1
2017-12-27,01:15:00,DRY,3.65,4.60,7.5,779.00,0.4
2017-12-27,01:20:00,DRY,3.60,4.30,7.7,779.00,0.6
2017-12-27,01:25:00,DRY,3.45,4.25,7.0,779.00,0.6
2017-12-27,01:30:00,DRY,3.73,4.17,7.7,779.00,0.4
2017-12-27,01:35:00,DRY,3.70,4.15,8.0,779.00,0.5
2017-12-27,01:40:00,DRY,3.70,4.10,8.0,779.00,0.3
2017-12-27,01:45:00,DRY,3.35,4.30,7.5,779.00,0.2
2017-12-27,01:50:00,DRY,3.17,4.30,7.0,779.00,0.4
2017-12-27,01:55:00,DRY,3.35,4.10,8.0,779.00,0.4
2017-12-27,02:00:00,DRY,3.70,4.20,8.0,779.00,0.7
2017-12-27,02:05:00,DRY,3.55,4.50,7.0,779.00,0.3
2017-12-27,02:10:00,DRY,3.43,4.70,7.0,779.00,0.6
2017-12-27,02:15:00,DRY,2.80,4.85,7.0,779.00,0.6
2017-12-27,02:20:00,DRY,3.07,4.67,7.0,779.00,0.5
2017-12-27,02:25:00,DRY,3.50,5.00,5.0,779.00,0.2
2017-12-27,02:30:00,DRY,2.83,5.00,5.7,779.00,0.0
2017-12-27,02:35:00,DRY,2.85,5.00,5.5,779.00,0.8
2017-12-27,02:40:00,DRY,2.57,5.40,4.7,779.00,0.5
2017-12-27,02:45:00,DRY,2.80,5.35,4.0,779.00,0.8
2017-12-27,02:50:00,DRY,2.70,5.40,4.0,779.00,0.3
2017-12-27,02:55:00,DRY,2.40,5.50,3.5,779.00,1.1
2017-12-27,03:00:00,DRY,1.70,5.23,4.3,779.00,1.1
2017-12-27,03:05:00,DRY,2.40,5.10,4.0,779.00,0.9
2017-12-27,03:10:00,DRY,2.47,5.30,4.0,778.67,0.4
2017-12-27,03:15:00,DRY,2.25,5.25,4.5,779.00,0.0
2017-12-27,03:20:00,DRY,2.37,5.03,4.3,778.67,0.0
2017-12-27,03:25:00,DRY,1.90,5.15,4.0,778.00,0.4
2017-12-27,03:30:00,DRY,2.03,5.20,4.0,778.67,0.3
2017-12-27,03:35:00,DRY,2.05,5.35,4.5,778.50,1.1
2017-12-27,03:40:00,DRY,1.77,5.43,3.7,778.00,0.6
2017-12-27,03:45:00,DRY,2.40,5.75,3.0,778.50,1.1
2017-12-27,03:50:00,DRY,1.93,5.47,3.3,778.00,0.9
2017-12-27,03:55:00,DRY,1.85,5.50,3.5,778.00,0.0
2017-12-27,04:00:00,DRY,2.50,5.57,3.7,778.00,1.2
2017-12-27,04:05:00,DRY,2.25,5.60,4.0,778.00,1.4
2017-12-27,04:10:00,DRY,2.33,5.27,3.7,778.00,0.9
2017-12-27,04:15:00,DRY,2.10,5.20,3.0,778.00,0.6
2017-12-27,04:20:00,DRY,1.57,5.07,3.0,778.00,0.4
2017-12-27,04:25:00,DRY,1.45,5.15,3.0,778.50,0.3
2017-12-27,04:30:00,DRY,1.93,5.13,3.3,778.33,0.9
2017-12-27,04:35:00,DRY,1.00,4.95,4.0,778.00,0.9
2017-12-27,04:40:00,DRY,1.63,5.10,3.0,778.00,0.8
2017-12-27,04:45:00,DRY,2.60,5.20,3.0,778.00,1.1
2017-12-27,04:50:00,DRY,1.80,4.57,4.3,778.00,0.9
2017-12-27,04:55:00,DRY,2.30,4.45,5.0,778.00,0.0
2017-12-27,05:00:00,DRY,2.17,4.60,4.0,778.00,0.8
2017-12-27,05:05:00,DRY,2.50,4.25,4.0,778.00,0.2
2017-12-27,05:10:00,DRY,2.53,4.07,4.3,778.00,0.7
2017-12-27,05:15:00,DRY,1.75,4.15,5.0,778.00,0.5
2017-12-27,05:20:00,DRY,2.07,4.13,4.0,778.00,0.4
2017-12-27,05:25:00,DRY,3.50,4.30,4.5,778.00,0.0
2017-12-27,05:30:00,DRY,2.93,4.37,4.3,778.00,0.3
2017-12-27,05:35:00,DRY,3.20,4.50,4.0,778.00,0.3
2017-12-27,05:40:00,DRY,3.63,4.63,4.0,778.00,0.3
2017-12-27,05:45:00,DRY,2.90,4.75,4.0,778.00,0.7
2017-12-27,05:50:00,DRY,3.73,4.30,4.0,778.00,0.6
2017-12-27,05:55:00,DRY,4.15,4.20,4.0,778.00,0.3
2017-12-27,06:00:00,DRY,4.23,4.33,4.0,778.00,0.3
2017-12-27,06:05:00,DRY,3.50,4.10,4.0,778.50,0.3
2017-12-27,06:10:00,DRY,3.13,4.13,4.7,778.67,0.7
2017-12-27,06:15:00,DRY,3.60,3.95,5.0,778.50,0.7
2017-12-27,06:20:00,DRY,3.07,3.80,5.3,778.00,0.6
2017-12-27,06:25:00,DRY,3.15,3.55,7.0,779.00,0.8
2017-12-27,06:30:00,DRY,4.07,3.57,6.7,779.00,0.4
2017-12-27,06:35:00,DRY,4.35,3.85,4.5,779.00,0.5
2017-12-27,06:40:00,DRY,4.43,4.20,4.0,779.00,0.6
2017-12-27,06:45:00,DRY,4.85,4.30,3.0,779.00,0.6
2017-12-27,06:50:00,DRY,4.47,4.57,3.3,779.00,0.5
2017-12-27,06:55:00,DRY,4.55,4.45,3.5,779.00,0.3
2017-12-27,07:00:00,DRY,4.20,4.53,3.3,779.00,0.6
2017-12-27,07:05:00,DRY,4.50,4.50,4.0,779.00,0.6
2017-12-27,07:10:00,DRY,4.87,4.63,3.7,779.00,0.4
2017-12-27,07:15:00,DRY,4.80,4.75,3.0,779.00,0.2
2017-12-27,07:20:00,DRY,4.63,4.53,4.0,779.00,0.4
2017-12-27,07:25:00,DRY,5.50,4.65,3.5,779.00,0.3
2017-12-27,07:30:00,DRY,4.57,4.70,3.7,779.00,0.6
2017-12-27,07:35:00,DRY,4.15,4.60,4.0,779.00,0.2
2017-12-27,07:40:00,DRY,4.67,4.73,4.0,779.00,0.5
2017-12-27,07:45:00,DRY,4.75,4.75,4.0,779.00,0.8
2017-12-27,07:50:00,DRY,4.90,4.73,3.7,779.00,1.4
2017-12-27,07:55:00,DRY,4.75,4.65,4.0,779.00,3.2
2017-12-27,08:00:00,DRY,4.17,4.80,4.0,779.00,4.8
2017-12-27,08:05:00,DRY,4.10,4.80,3.0,779.00,6.9
2017-12-27,08:10:00,DRY,3.93,4.90,3.3,779.00,9.3
2017-12-27,08:15:00,DRY,4.70,4.90,3.5,779.00,11.7
2017-12-27,08:20:00,DRY,4.60,5.00,3.3,779.00,13.8
2017-12-27,08:25:00,DRY,4.95,5.10,4.0,779.00,14.9
2017-12-27,08:30:00,DRY,4.13,5.03,4.0,779.00,16.7
2017-12-27,08:35:00,DRY,4.40,5.10,4.0,779.00,18.3
2017-12-27,08:40:00,DRY,3.07,5.30,4.3,779.00,20.6
2017-12-27,08:45:00,DRY,4.25,5.45,4.0,779.00,82.2
2017-12-27,08:50:00,DRY,4.03,5.47,4.0,779.00,171.4
2017-12-27,08:55:00,DRY,3.85,5.65,4.0,779.00,189.2
2017-12-27,09:00:00,DRY,3.43,5.60,4.0,779.00,208.7
2017-12-27,09:05:00,DRY,2.75,5.45,4.0,779.00,227.4
2017-12-27,09:10:00,DRY,4.33,5.37,4.0,779.00,246.2
2017-12-27,09:15:00,DRY,4.30,5.35,4.0,779.00,264.0
2017-12-27,09:20:00,DRY,4.67,5.50,4.0,779.00,282.6
2017-12-27,09:25:00,DRY,4.80,5.60,4.0,779.00,300.8
2017-12-27,09:30:00,DRY,5.00,5.73,4.0,779.00,318.2
2017-12-27,09:35:00,DRY,5.05,5.65,4.0,779.00,336.1
2017-12-27,09:40:00,DRY,5.23,5.73,4.0,779.00,353.1
2017-12-27,09:45:00,DRY,4.40,5.80,4.0,779.50,370.8
2017-12-27,09:50:00,DRY,4.20,5.97,4.3,780.00,386.9
2017-12-27,09:55:00,DRY,3.00,6.00,4.5,780.00,403.8
2017-12-27,10:00:00,DRY,4.10,6.03,4.7,780.00,420.7
2017-12-27,10:05:00,DRY,3.90,6.30,5.0,780.00,436.3
2017-12-27,10:10:00,DRY,3.07,6.47,5.0,780.00,452.6
2017-12-27,10:15:00,DRY,3.00,6.65,5.5,780.00,467.9
2017-12-27,10:20:00,DRY,3.23,6.77,5.3,780.00,482.3
2017-12-27,10:25:00,DRY,3.90,6.65,5.5,780.00,498.0
2017-12-27,10:30:00,DRY,4.00,6.80,5.7,780.00,511.3
2017-12-27,10:35:00,DRY,3.45,6.90,6.0,780.00,524.6
2017-12-27,10:40:00,DRY,3.30,6.83,5.7,780.00,538.1
2017-12-27,10:45:00,DRY,2.70,6.85,5.5,780.00,551.4
2017-12-27,10:50:00,DRY,3.17,6.77,6.0,780.00,564.0
2017-12-27,10:55:00,DRY,4.15,6.85,6.0,780.00,576.5
2017-12-27,11:00:00,DRY,2.87,7.03,6.0,780.00,587.7
2017-12-27,11:05:00,DRY,2.75,7.40,6.0,780.00,599.8
2017-12-27,11:10:00,DRY,2.70,7.20,5.7,780.00,610.6
2017-12-27,11:15:00,DRY,2.65,7.20,6.5,780.00,621.2
2017-12-27,11:20:00,DRY,3.03,7.17,6.0,780.00,631.0
2017-12-27,11:25:00,DRY,3.00,7.10,6.0,780.00,641.4
2017-12-27,11:30:00,DRY,2.80,7.10,6.7,780.00,649.4
2017-12-27,11:35:00,DRY,2.70,6.95,6.5,780.00,658.1
2017-12-27,11:40:00,DRY,3.13,6.83,6.3,780.00,666.7
2017-12-27,11:45:00,DRY,2.70,6.90,6.0,780.00,675.0
2017-12-27,11:50:00,DRY,3.23,6.93,6.7,780.00,682.1
2017-12-27,11:55:00,DRY,2.75,6.95,7.0,780.00,690.2
2017-12-27,12:00:00,DRY,3.00,6.93,6.7,780.00,697.9
2017-12-27,12:05:00,DRY,3.90,6.90,6.5,779.50,703.2
2017-12-27,12:10:00,DRY,3.30,6.77,6.3,779.00,709.1
2017-12-27,12:15:00,DRY,3.45,6.70,6.0,779.50,714.5
2017-12-27,12:20:00,DRY,3.17,6.67,5.3,779.00,720.2
2017-12-27,12:25:00,DRY,3.55,6.50,6.0,779.00,725.4
2017-12-27,12:30:00,DRY,4.67,6.47,5.0,779.00,728.7
2017-12-27,12:35:00,DRY,3.25,6.60,5.5,779.00,731.8
2017-12-27,12:40:00,DRY,4.33,6.87,5.3,779.00,735.7
2017-12-27,12:45:00,DRY,3.85,7.20,5.0,779.00,738.3
2017-12-27,12:50:00,DRY,3.73,7.27,5.0,779.00,739.7
2017-12-27,12:55:00,DRY,3.75,7.20,5.0,779.00,741.5
2017-12-27,13:00:00,DRY,3.73,6.73,5.3,779.00,742.9
2017-12-27,13:05:00,DRY,3.40,6.65,6.0,779.00,744.0
2017-12-27,13:10:00,DRY,4.07,6.70,6.3,779.00,744.0
2017-12-27,13:15:00,DRY,3.95,6.60,7.0,779.00,743.8
2017-12-27,13:20:00,DRY,4.40,6.57,7.3,778.33,743.0
2017-12-27,13:25:00,DRY,3.50,6.45,7.5,778.50,741.9
2017-12-27,13:30:00,DRY,4.70,6.80,7.0,778.00,741.1
2017-12-27,13:35:00,DRY,5.10,6.70,7.0,778.00,736.9
2017-12-27,13:40:00,DRY,4.00,6.87,6.3,778.00,735.9
2017-12-27,13:45:00,DRY,4.50,7.20,6.0,778.00,733.0
2017-12-27,13:50:00,DRY,4.87,7.10,7.7,778.00,728.9
2017-12-27,13:55:00,DRY,4.65,7.00,7.5,778.00,725.2
2017-12-27,14:00:00,DRY,5.03,7.37,6.3,778.00,720.7
2017-12-27,14:05:00,DRY,5.25,7.30,6.5,778.00,716.7
2017-12-27,14:10:00,DRY,4.33,7.27,7.0,778.00,709.9
2017-12-27,14:15:00,DRY,2.25,7.20,7.0,778.00,703.7
2017-12-27,14:20:00,DRY,3.67,7.30,7.0,778.00,697.7
2017-12-27,14:25:00,DRY,3.80,7.40,8.0,778.00,690.8
2017-12-27,14:30:00,DRY,2.63,7.50,7.3,778.00,683.4
2017-12-27,14:35:00,DRY,2.75,7.60,7.5,778.00,676.2
2017-12-27,14:40:00,DRY,2.60,7.83,8.0,778.00,668.1
2017-12-27,14:45:00,DRY,2.90,7.90,8.5,778.00,659.7
2017-12-27,14:50:00,DRY,2.23,7.90,8.3,778.00,649.5
2017-12-27,14:55:00,DRY,4.05,7.80,8.5,778.00,639.8
2017-12-27,15:00:00,DRY,3.27,7.83,9.0,778.00,629.3
2017-12-27,15:05:00,DRY,3.05,7.70,10.0,778.00,618.3
2017-12-27,15:10:00,DRY,2.80,7.77,10.3,778.00,607.6
2017-12-27,15:15:00,DRY,3.60,7.65,10.0,778.00,597.1
2017-12-27,15:20:00,DRY,3.57,7.50,10.0,778.00,585.5
2017-12-27,15:25:00,DRY,4.05,7.45,9.5,778.00,573.4
2017-12-27,15:30:00,DRY,4.20,7.40,9.3,778.00,560.8
2017-12-27,15:35:00,DRY,2.90,7.30,10.0,778.00,546.8
2017-12-27,15:40:00,DRY,4.40,7.07,8.7,778.00,533.5
2017-12-27,15:45:00,DRY,5.55,6.95,8.0,778.00,520.6
2017-12-27,15:50:00,DRY,4.23,6.80,10.7,778.00,506.4
2017-12-27,15:55:00,DRY,5.30,6.50,13.5,778.00,492.4
2017-12-27,16:00:00,DRY,4.10,5.97,19.3,778.00,476.4
2017-12-27,16:05:00,DRY,5.90,5.85,20.5,778.00,460.8
2017-12-27,16:10:00,DRY,5.07,5.67,21.3,778.00,445.6
2017-12-27,16:15:00,DRY,4.45,5.60,20.5,778.00,429.0
2017-12-27,16:20:00,DRY,4.47,5.43,24.0,778.00,412.6
2017-12-27,16:25:00,DRY,4.35,5.45,24.0,778.00,396.6
2017-12-27,16:30:00,DRY,5.33,5.37,22.7,778.00,380.0
2017-12-27,16:35:00,DRY,4.85,5.60,21.5,778.00,362.1
2017-12-27,16:40:00,DRY,4.10,5.57,21.0,778.00,344.6
2017-12-27,16:45:00,DRY,5.70,5.75,19.0,778.00,328.2
2017-12-27,16:50:00,DRY,4.57,6.03,15.7,778.00,310.1
2017-12-27,16:55:00,DRY,6.00,6.00,15.0,778.00,292.4
2017-12-27,17:00:00,DRY,4.43,6.10,13.3,778.00,274.0
2017-12-27,17:05:00,DRY,6.40,6.10,11.5,778.00,255.9
2017-12-27,17:10:00,DRY,6.10,6.23,10.0,778.00,237.7
2017-12-27,17:15:00,DRY,6.30,6.30,9.5,778.00,219.7
2017-12-27,17:20:00,DRY,5.30,6.40,8.7,778.00,201.0
2017-12-27,17:25:00,DRY,5.05,6.70,8.5,778.00,184.7
2017-12-27,17:30:00,DRY,6.27,6.57,7.3,778.00,166.8
2017-12-27,17:35:00,DRY,5.30,6.75,7.0,778.00,150.2
2017-12-27,17:40:00,DRY,4.50,6.80,8.7,778.00,129.1
2017-12-27,17:45:00,DRY,4.90,6.75,10.0,778.00,105.0
2017-12-27,17:50:00,DRY,5.93,6.67,9.0,778.00,82.4
2017-12-27,17:55:00,DRY,4.85,6.55,7.5,778.00,62.0
2017-12-27,18:00:00,DRY,5.43,6.40,7.7,778.00,44.3
2017-12-27,18:05:00,DRY,5.80,6.35,7.0,778.00,29.6
2017-12-27,18:10:00,DRY,4.93,6.23,8.0,778.00,18.4
2017-12-27,18:15:00,DRY,5.15,6.05,9.0,778.00,13.1
2017-12-27,18:20:00,DRY,4.57,6.03,10.0,778.00,10.1
2017-12-27,18:25:00,DRY,4.35,6.05,10.0,778.00,6.3
2017-12-27,18:30:00,DRY,3.13,5.80,10.0,778.00,1.8
2017-12-27,18:35:00,DRY,7.70,5.75,10.5,778.00,0.5
2017-12-27,18:40:00,DRY,5.70,5.90,11.0,778.00,0.2
2017-12-27,18:45:00,DRY,4.95,5.80,12.0,778.00,0.0
2017-12-27,18:50:00,DRY,6.17,5.77,11.7,778.00,0.0
2017-12-27,18:55:00,DRY,6.90,5.75,12.5,778.00,0.0
2017-12-27,19:00:00,DRY,5.47,5.73,14.3,778.00,0.0
2017-12-27,19:05:00,DRY,5.45,5.60,14.5,778.00,0.0
2017-12-27,19:10:00,DRY,5.60,5.43,14.3,778.00,0.1
2017-12-27,19:15:00,DRY,5.20,5.35,13.5,778.00,0.1
2017-12-27,19:20:00,DRY,6.03,5.27,13.7,778.00,0.2
2017-12-27,19:25:00,DRY,6.30,5.20,13.0,778.00,0.7
2017-12-27,19:30:00,,,,,,
2017-12-27,19:35:00,DRY,4.35,4.80,15.5,778.00,0.5
2017-12-27,19:40:00,DRY,5.30,4.90,15.3,778.00,0.3
2017-12-27,19:45:00,DRY,3.20,4.65,15.5,778.00,0.1
2017-12-27,19:50:00,DRY,4.47,4.70,15.0,778.33,0.2
2017-12-27,19:55:00,DRY,4.65,4.70,15.5,779.00,2.1
2017-12-27,20:00:00,DRY,4.03,4.57,15.7,778.67,0.0
2017-12-27,20:05:00,DRY,5.10,4.75,16.0,779.00,0.5
2017-12-27,20:10:00,DRY,4.07,4.67,15.7,778.67,0.2
2017-12-27,20:15:00,DRY,5.10,4.75,17.0,779.00,0.3
2017-12-27,20:20:00,DRY,6.17,4.83,16.7,779.00,0.2
2017-12-27,20:25:00,DRY,5.00,4.90,18.0,779.00,0.5
2017-12-27,20:30:00,DRY,4.70,4.97,18.0,779.00,0.3
2017-12-27,20:35:00,DRY,3.85,5.10,18.5,779.00,0.0
2017-12-27,20:40:00,DRY,4.77,5.20,18.7,779.00,0.2
2017-12-27,20:45:00,DRY,5.50,5.25,19.0,779.00,0.0
2017-12-27,20:50:00,DRY,4.87,5.60,18.3,779.00,0.1
2017-12-27,20:55:00,DRY,4.10,5.65,19.5,779.00,0.1
2017-12-27,21:00:00,DRY,5.10,5.73,19.0,779.00,0.4
2017-12-27,21:05:00,DRY,4.05,5.80,20.5,779.00,0.0
2017-12-27,21:10:00,DRY,4.80,5.90,22.3,779.00,1.3
2017-12-27,21:15:00,DRY,4.70,6.00,22.5,779.00,0.1
2017-12-27,21:20:00,DRY,3.73,5.93,22.7,779.00,0.0
2017-12-27,21:25:00,DRY,4.70,5.95,22.5,779.00,0.5
2017-12-27,21:30:00,DRY,4.00,5.67,23.0,779.00,0.8
2017-12-27,21:35:00,DRY,5.35,5.45,23.0,779.00,0.0
2017-12-27,21:40:00,DRY,4.20,5.50,23.7,779.00,0.0
2017-12-27,21:45:00,DRY,4.25,5.60,23.5,779.00,0.2